Temperature
13 13 12 11 11 12 12 12 12 12 12 11 12 13 14 14 14 15 15 16 17 18 19 19 20 20 20 20 19 19 18 18 17 17 17 17 17 17 16 16 16 16 15 15
12 12 12 10 10 11 11 11 12 12 11 12 12 13 13 13 14 13 14 14 16 17 18 19 19 19 19 19 19 18 18 17 17 17 17 17 17 17 16 16 16 16 15 15
11 12 12 10 9 10 10 10 10 10 10 11 12 12 13 13 13 13 14 14 15 16 17 17 18 18 18 18 18 17 17 17 17 17 16 16 16 16 16 16 16 16 15 15
10 11 10 9 10 10 10 10 10 10 10 11 11 12 13 13 13 14 14 14 15 15 16 16 16 16 16 16 16 16 16 15 15 15 15 15 15 15 15 15 15 15 15 15
9 10 10 10 11 10 9 10 9 9 10 10 11 12 13 13 13 14 14 15 15 15 15 15 15 15 15 15 15 15 15 14 14 14 15 15 15 14 14 14 14 14 15 15
9 10 9 9 11 10 10 10 10 9 9 10 10 10 11 13 14 14 15 15 15 15 15 15 14 14 15 14 14 14 13 13 13 13 13 13 13 13 13 13 13 13 14 14
8 9 9 10 10 10 10 9 9 9 9 10 10 10 12 13 14 15 15 15 15 15 14 14 14 14 14 13 13 13 13 12 12 12 12 12 12 12 12 12 12 13 13 13
8 8 9 11 10 9 9 10 10 10 10 10 11 12 13 14 15 15 15 15 15 15 14 14 14 14 13 13 13 12 12 12 12 12 11 11 11 11 11 11 12 12 12 13
9 9 11 11 11 11 10 10 11 11 11 11 12 12 13 14 15 15 15 15 15 15 15 14 14 14 13 13 13 13 12 12 12 11 11 11 11 11 11 11 12 12 12 12
9 10 11 11 11 11 11 11 11 11 11 12 12 13 13 14 15 15 16 16 15 15 15 15 14 14 14 13 13 13 12 12 12 11 11 11 11 11 11 11 11 12 12 12
9 10 11 12 12 12 11 11 12 12 12 12 12 13 13 14 15 15 16 16 16 15 15 15 14 14 14 13 13 13 12 12 12 11 11 11 11 11 11 11 11 11 11 11
9 11 11 12 12 12 12 11 11 11 12 12 12 12 13 14 15 15 16 16 16 16 15 15 15 14 14 13 13 13 12 12 12 11 11 11 11 11 11 11 11 11 11 11
13 12 12 12 12 12 12 11 11 11 11 11 12 12 13 14 15 15 16 16 16 16 16 15 15 15 14 14 13 13 12 12 12 11 11 11 11 11 10 10 10 10 10 10
13 12 12 12 12 12 11 11 11 11 11 11 12 12 13 14 15 16 16 16 16 16 16 16 16 15 15 14 14 13 12 12 12 11 11 11 11 11 10 10 10 10 10 10
13 12 12 12 12 11 11 11 11 11 11 11 12 12 13 14 15 16 16 16 16 16 16 16 16 16 15 15 14 13 13 12 12 11 11 11 11 11 10 10 10 9 9 9
12 12 12 12 11 11 11 11 11 11 11 11 11 12 12 14 15 16 16 16 17 17 16 16 16 16 15 15 14 14 13 12 12 11 11 11 11 11 10 10 10 10 9 9
12 12 12 11 11 11 11 11 11 11 11 11 11 12 12 14 15 16 17 17 17 17 17 16 16 16 16 15 15 14 13 12 12 11 11 11 11 11 11 10 10 10 10 9
13 12 12 11 11 11 11 11 11 11 11 11 11 12 12 13 15 16 17 17 17 17 17 17 16 16 16 15 15 14 13 12 12 11 11 11 11 11 11 10 10 10 10 10
12 12 11 11 11 11 11 11 11 11 11 11 11 11 12 12 14 15 16 17 17 18 17 17 17 16 16 15 15 14 13 12 12 11 11 11 11 11 11 10 10 10 10 10
12 12 11 11 11 11 11 11 11 11 11 11 11 12 12 12 13 15 16 17 17 17 17 17 17 16 16 15 15 14 13 12 12 11 11 11 11 11 11 10 10 10 10 10
12 12 11 11 11 11 11 11 11 11 11 11 11 11 11 12 13 14 15 17 17 17 17 17 17 16 16 15 15 14 13 12 12 11 11 11 11 11 11 10 10 10 10 10
12 12 11 11 11 11 11 11 11 11 11 11 11 11 12 12 12 13 14 15 16 16 17 17 17 16 16 15 14 14 13 12 12 11 11 11 11 11 11 10 10 10 10 9
12 12 11 11 11 11 11 11 11 11 11 11 11 11 11 12 12 12 14 15 16 16 17 17 17 16 16 15 14 14 13 12 11 11 11 11 11 11 10 10 10 10 9 9
12 12 12 11 11 11 12 12 11 11 11 11 11 11 11 12 12 12 13 14 15 16 16 17 17 16 16 15 14 14 13 12 12 11 11 11 11 10 10 10 10 9 9 9
12 12 12 12 11 12 12 12 12 12 12 12 12 11 11 11 11 12 13 14 14 15 16 16 16 16 16 15 15 14 13 12 12 11 11 11 10 10 10 10 10 9 9 9
12 12 12 12 12 12 11 11 12 12 12 12 12 12 12 12 12 12 12 13 14 14 15 15 16 16 16 15 15 14 13 12 12 11 11 10 10 10 10 10 10 9 9 9
12 12 12 12 12 11 11 11 11 11 11 12 12 12 11 12 12 12 12 12 13 14 14 14 15 15 15 15 15 14 13 12 12 11 11 10 10 10 10 10 9 9 9 9
Wind_Speed
4 10 13 15 16 14 12 8 5 6 8 14 17 15 13 13 13 14 13 10 6 4 4 5 4 2 1 2 4 5 5 4 3 4 5 5 5 6 6 6 7 6 6 6
5 11 14 16 19 16 13 11 9 9 8 14 16 12 13 15 17 16 15 15 13 11 9 9 8 7 6 6 5 5 5 3 2 2 3 3 3 4 4 5 5 5 6 6
3 2 4 10 13 11 9 11 8 8 9 15 16 16 14 14 15 15 13 13 14 13 12 11 11 11 12 11 11 10 9 7 6 5 5 5 4 2 2 4 4 5 6 7
2 4 6 2 4 6 4 9 10 9 10 14 16 14 7 10 13 12 11 11 10 9 10 10 11 11 10 10 11 10 9 8 7 6 6 6 6 5 3 2 3 4 5 6
3 4 3 2 4 4 3 2 8 10 13 16 17 9 5 12 15 9 7 7 7 7 8 9 9 8 9 9 8 8 7 6 6 6 6 6 6 5 3 2 2 2 3 5
5 4 2 4 7 5 2 0 6 10 13 15 14 10 10 17 17 10 5 5 6 6 7 8 6 7 9 7 7 7 5 5 5 5 5 5 5 4 3 3 2 2 2 2
4 3 1 4 7 4 2 4 9 9 10 11 7 5 12 17 13 7 2 4 5 6 5 4 4 6 7 6 5 3 4 4 5 5 5 5 5 4 4 4 3 3 3 2
3 3 3 4 3 2 3 5 6 8 8 9 10 12 13 13 11 7 1 2 4 4 3 3 3 5 5 4 4 3 4 5 5 6 6 6 7 7 6 6 5 5 4 5
4 4 4 2 3 4 4 4 5 6 9 10 10 10 13 12 11 6 2 0 2 3 3 4 3 3 4 5 3 3 5 5 4 5 6 7 7 8 7 7 6 5 5 4
2 2 3 3 3 4 5 6 8 8 10 8 9 11 12 11 10 7 4 2 1 2 3 3 3 3 3 4 4 5 5 3 3 4 5 6 6 7 7 7 7 6 6 5
2 3 2 3 4 5 5 6 7 8 7 7 8 9 8 9 9 8 5 3 1 2 1 1 1 2 3 4 5 5 3 2 2 2 3 4 5 6 6 6 5 4 4 4
6 6 5 5 5 4 4 5 6 7 8 8 7 9 9 9 9 8 7 4 3 3 1 2 3 2 1 2 4 4 2 1 1 1 1 1 2 3 7 6 9 10 8 5
7 7 6 5 3 2 2 4 6 6 7 8 8 7 8 8 8 9 8 6 5 6 5 4 5 5 4 1 3 4 3 1 0 1 1 0 1 1 1 3 6 9 10 9
7 6 4 2 1 2 2 4 5 6 7 7 7 8 8 8 8 10 9 9 7 7 7 6 6 6 6 3 4 4 3 1 1 1 1 1 1 1 1 1 2 4 5 7
7 7 6 3 1 2 3 4 5 7 8 8 7 8 9 9 10 10 10 9 7 5 7 7 7 7 6 5 5 5 4 2 1 1 1 1 2 3 3 3 2 2 3 5
8 7 6 4 2 2 3 4 5 7 7 7 8 9 9 9 9 9 9 8 7 7 7 7 8 7 7 7 6 5 3 4 3 1 2 2 2 3 3 3 3 3 3 4
10 7 5 3 1 2 2 3 4 6 7 8 9 9 9 9 9 9 10 10 9 8 7 6 7 6 7 8 7 5 4 2 2 3 2 2 2 3 3 3 3 2 2 4
10 9 8 6 5 4 4 4 5 6 6 7 8 9 9 9 9 10 10 10 9 9 7 6 5 5 7 7 6 5 5 4 2 2 3 2 2 3 3 3 3 3 2 3
10 9 8 7 5 4 4 4 6 7 7 7 7 8 9 9 9 9 9 8 8 8 9 8 5 5 7 8 7 5 5 5 3 2 3 3 3 3 3 3 3 2 2 3
10 8 7 6 5 4 4 5 6 6 6 5 6 7 9 9 9 9 8 7 5 6 9 8 3 4 6 7 8 5 6 5 4 4 3 3 3 3 3 3 3 3 3 3
10 8 7 6 5 4 4 5 4 5 6 5 6 7 8 9 9 8 7 7 7 9 8 6 0 3 5 6 8 5 6 5 5 4 4 4 3 3 3 4 3 3 3 3
9 8 8 7 5 4 4 4 3 4 5 5 6 7 7 8 9 9 7 5 7 11 7 3 1 3 7 8 5 6 6 5 5 4 4 4 4 4 4 4 4 4 4 4
9 8 7 7 6 5 4 3 3 3 4 5 6 7 7 7 6 6 8 7 8 11 7 4 4 5 11 7 6 6 6 6 5 4 4 4 4 5 5 5 4 4 4 4
9 8 8 7 5 4 4 4 4 4 4 5 5 6 6 6 6 6 6 11 13 12 6 6 6 8 10 6 6 6 6 5 5 4 4 4 4 5 5 5 5 4 5 5
10 9 7 6 6 5 6 5 4 4 4 4 6 7 6 4 5 7 8 9 12 10 5 5 4 9 7 5 6 6 6 6 6 5 5 5 5 5 5 5 5 5 5 5
9 8 7 7 6 6 5 4 3 4 4 4 5 6 6 6 7 7 7 8 10 8 5 3 2 5 4 5 6 7 6 6 6 6 6 6 6 6 5 6 7 6 5 5
8 6 5 5 5 5 5 4 5 5 5 4 5 6 6 6 6 7 7 7 7 6 5 4 3 3 4 4 5 6 6 6 6 6 6 6 6 6 6 7 6 6 5 6
Wind_Direction
49 71 71 45 24 32 49 64 83 83 42 3 348 340 348 3 10 17 16 14 355 318 314 320 323 325 278 207 152 145 138 152 211 251 249 237 225 219 216 212 213 205 202 209
69 87 75 48 24 26 37 42 47 46 24 346 338 345 7 16 20 21 20 22 26 33 39 38 36 37 41 54 75 90 100 90 31 342 323 289 256 224 214 220 222 206 207 207
29 72 62 35 7 11 36 39 28 28 348 336 345 350 2 10 13 17 21 25 31 37 43 46 49 54 58 59 65 71 67 57 44 40 32 10 359 340 256 237 227 217 214 204
53 51 60 327 286 326 6 55 30 5 344 346 340 324 331 12 6 6 16 25 27 34 47 51 56 59 63 65 66 67 63 55 41 37 34 22 23 15 346 294 247 234 226 215
62 76 94 351 339 340 334 29 19 353 347 348 342 338 348 355 353 349 10 30 35 41 52 55 57 62 67 63 64 64 58 51 41 39 35 23 13 355 339 329 302 258 243 220
55 73 51 308 312 319 225 333 3 346 340 342 354 13 337 330 332 334 6 39 45 45 50 51 47 59 63 55 53 51 45 39 32 33 29 14 355 338 328 323 309 299 286 238
55 78 299 275 308 344 58 314 316 317 318 327 337 292 292 311 321 323 357 68 69 60 54 47 50 61 56 42 29 16 31 37 28 19 13 7 353 345 342 351 3 16 26 21
59 47 291 299 20 46 254 268 284 293 298 306 306 306 313 320 324 324 321 78 78 62 33 15 40 58 43 13 334 359 36 42 31 22 18 16 12 8 9 14 26 28 39 38
173 206 235 216 209 232 230 261 274 278 291 300 308 313 320 324 330 327 280 328 75 80 29 6 16 48 26 339 341 46 57 53 46 37 28 24 27 22 18 20 27 28 35 38
114 213 208 228 255 258 240 248 270 279 289 298 305 313 323 332 340 342 319 308 71 90 42 4 357 21 13 0 42 89 87 72 53 48 37 32 31 28 30 23 21 26 30 31
159 212 222 288 286 275 271 282 292 299 299 307 315 321 327 335 338 339 326 303 248 139 89 306 279 345 13 44 76 89 93 73 44 49 59 50 46 36 29 27 19 23 23 26
200 209 190 243 265 280 303 309 312 321 327 329 332 329 333 334 335 338 338 324 283 247 204 205 214 249 294 77 107 113 99 64 0 359 42 99 87 54 36 33 31 39 41 42
176 187 189 219 266 311 323 331 334 335 331 330 330 330 331 329 329 332 333 331 291 258 242 218 210 227 239 179 125 132 142 165 318 349 358 208 191 172 28 11 24 34 35 39
167 156 167 194 248 330 350 341 339 338 332 327 323 324 326 324 325 330 326 317 295 264 245 229 216 225 226 190 142 145 149 134 102 1 2 29 145 161 135 80 20 359 4 18
174 164 171 170 102 27 4 352 351 341 332 328 324 325 326 328 325 321 318 321 318 281 250 236 227 230 212 178 153 154 156 155 97 28 28 71 90 95 94 93 68 21 2 359
161 144 136 117 71 1 351 350 341 328 324 321 323 324 321 317 313 313 319 330 334 303 268 245 236 227 193 173 158 157 171 177 145 94 68 89 100 100 98 97 81 54 28 360
146 153 153 164 226 273 297 304 305 307 311 315 315 318 321 323 326 329 330 330 321 301 278 254 244 219 184 174 165 167 170 171 132 95 101 113 120 124 124 119 104 76 22 5
162 168 174 184 201 232 276 297 301 306 304 303 313 323 328 327 325 321 320 322 327 328 315 289 256 203 180 173 165 161 161 163 150 137 128 121 125 132 131 128 123 103 46 36
156 164 178 195 204 209 234 268 285 294 300 309 321 322 319 316 313 312 316 324 334 330 316 312 280 190 176 174 157 151 155 158 152 143 134 127 116 120 131 136 136 124 103 81
160 168 184 201 203 207 243 270 285 298 303 311 321 325 326 322 321 322 322 316 302 290 298 303 270 177 174 168 152 146 151 155 154 149 141 136 136 138 141 143 144 135 123 112
167 178 192 199 211 235 259 275 288 296 303 315 322 321 318 318 323 326 327 323 316 323 328 331 2 171 170 160 149 142 146 148 149 151 151 152 151 147 144 141 141 138 132 122
173 187 200 202 209 238 266 277 276 284 303 317 322 325 326 326 328 328 317 289 298 318 327 317 290 195 173 155 143 144 147 148 150 149 147 152 154 153 153 151 147 140 133 128
177 188 199 204 210 227 260 271 269 285 296 305 314 320 317 312 314 322 321 310 311 313 313 284 267 205 164 150 148 148 150 151 155 158 160 161 162 158 156 156 152 144 140 136
177 189 200 205 201 207 240 258 269 278 282 291 299 305 308 314 316 307 295 305 313 312 299 281 261 181 158 150 151 152 156 159 160 159 157 156 156 154 154 153 149 143 139 136
180 187 192 190 197 215 230 244 271 286 295 300 303 306 304 292 290 304 311 316 320 320 308 294 236 172 157 154 160 163 167 172 169 162 157 156 157 157 158 157 153 147 144 142
179 186 194 198 200 207 211 218 234 255 267 287 297 300 305 308 309 313 317 325 332 333 322 302 249 178 167 166 170 173 173 172 167 164 165 163 163 161 160 159 153 150 148 146
182 185 189 204 217 212 209 211 220 236 236 244 272 290 302 310 315 321 327 333 340 339 326 303 265 221 197 183 175 173 171 168 166 166 167 167 166 167 166 160 156 151 148 149
Height
1525 1524 1525 1526 1523 1516 1514 1515 1520 1523 1523 1521 1515 1510 1504 1498 1492 1487 1483 1480 1478 1477 1476 1476 1476 1476 1477 1478 1481 1483 1486 1487 1489 1490 1491 1491 1491 1491 1491 1492 1491 1491 1491 1491
1529 1528 1528 1531 1530 1525 1522 1523 1524 1524 1526 1523 1518 1511 1505 1500 1495 1491 1487 1483 1480 1478 1477 1477 1477 1477 1477 1478 1480 1482 1485 1486 1487 1487 1488 1488 1488 1489 1489 1489 1489 1489 1489 1489
1535 1529 1529 1538 1541 1537 1534 1534 1532 1533 1534 1525 1518 1512 1509 1505 1500 1496 1492 1488 1484 1482 1481 1480 1479 1479 1479 1480 1481 1482 1484 1485 1485 1485 1485 1485 1485 1485 1486 1486 1486 1486 1486 1486
1538 1536 1545 1551 1543 1542 1539 1539 1538 1536 1533 1527 1521 1515 1511 1508 1505 1501 1497 1494 1491 1489 1487 1485 1484 1484 1483 1483 1483 1483 1483 1483 1483 1483 1483 1482 1482 1482 1481 1481 1481 1482 1482 1482
1543 1544 1547 1546 1542 1542 1542 1540 1540 1537 1532 1527 1521 1514 1511 1508 1506 1505 1502 1499 1497 1494 1492 1490 1489 1488 1487 1486 1485 1484 1484 1483 1482 1481 1480 1479 1478 1477 1477 1477 1476 1477 1477 1478
1545 1547 1552 1550 1542 1540 1543 1540 1539 1537 1533 1529 1523 1520 1517 1511 1508 1507 1505 1503 1501 1499 1496 1494 1493 1491 1489 1488 1487 1486 1485 1484 1482 1480 1479 1477 1475 1474 1473 1472 1472 1472 1473 1474
1550 1550 1550 1546 1541 1540 1545 1547 1540 1536 1534 1530 1527 1527 1521 1514 1511 1509 1507 1505 1503 1501 1499 1497 1496 1494 1492 1490 1489 1489 1487 1486 1483 1481 1479 1476 1474 1472 1471 1470 1469 1469 1470 1471
1553 1555 1556 1543 1542 1544 1546 1541 1538 1535 1533 1530 1526 1522 1518 1514 1511 1509 1508 1507 1505 1503 1501 1500 1498 1496 1494 1493 1492 1491 1489 1487 1485 1482 1480 1477 1475 1473 1472 1470 1470 1469 1469 1469
1549 1551 1544 1542 1542 1542 1541 1539 1537 1535 1532 1529 1525 1521 1517 1514 1511 1509 1509 1508 1506 1505 1504 1502 1501 1499 1497 1495 1494 1493 1491 1489 1487 1485 1482 1480 1478 1475 1474 1472 1471 1470 1469 1469
1545 1544 1542 1542 1541 1540 1539 1538 1536 1534 1531 1528 1525 1521 1518 1514 1512 1510 1509 1509 1508 1506 1506 1505 1503 1502 1499 1497 1496 1494 1493 1491 1489 1487 1485 1483 1481 1479 1477 1475 1474 1472 1471 1471
1543 1542 1541 1541 1540 1539 1538 1537 1535 1533 1530 1527 1524 1521 1518 1515 1513 1511 1510 1510 1509 1508 1507 1506 1505 1504 1502 1500 1498 1496 1495 1493 1491 1489 1487 1486 1484 1481 1480 1478 1476 1475 1474 1473
1542 1539 1539 1540 1539 1538 1537 1536 1534 1531 1529 1526 1524 1521 1518 1516 1514 1512 1511 1510 1510 1509 1508 1507 1506 1505 1503 1501 1499 1498 1496 1494 1493 1491 1489 1488 1486 1484 1482 1480 1479 1477 1476 1475
1534 1535 1537 1537 1537 1537 1536 1534 1533 1531 1528 1526 1523 1521 1518 1516 1514 1512 1511 1510 1509 1509 1508 1507 1506 1505 1504 1502 1500 1499 1497 1495 1494 1492 1490 1489 1487 1486 1484 1483 1481 1479 1477 1476
1532 1534 1535 1535 1536 1535 1534 1533 1532 1530 1527 1525 1522 1520 1517 1515 1513 1512 1510 1509 1508 1507 1507 1506 1506 1505 1504 1502 1500 1499 1497 1496 1494 1493 1492 1490 1489 1487 1486 1484 1483 1481 1479 1478
1530 1531 1533 1533 1534 1533 1533 1531 1530 1528 1526 1524 1521 1519 1516 1514 1512 1511 1509 1508 1506 1506 1505 1505 1504 1504 1503 1502 1500 1499 1497 1496 1495 1494 1493 1492 1490 1489 1488 1486 1485 1483 1482 1481
1528 1529 1531 1531 1531 1531 1530 1529 1528 1526 1524 1522 1520 1517 1515 1513 1511 1510 1508 1507 1505 1504 1503 1503 1502 1502 1502 1501 1500 1498 1497 1496 1495 1495 1494 1493 1492 1491 1489 1488 1487 1486 1484 1483
1525 1527 1528 1529 1529 1529 1528 1528 1526 1525 1523 1521 1519 1516 1513 1511 1509 1508 1507 1506 1504 1503 1501 1501 1500 1500 1500 1499 1499 1498 1497 1496 1496 1495 1494 1494 1493 1492 1491 1490 1489 1488 1487 1486
1522 1524 1525 1526 1527 1527 1526 1526 1525 1523 1522 1520 1517 1514 1512 1509 1507 1506 1505 1504 1503 1502 1500 1499 1498 1498 1498 1498 1497 1497 1496 1496 1496 1495 1495 1494 1494 1493 1492 1492 1491 1490 1489 1488
1519 1521 1523 1524 1525 1525 1524 1523 1522 1521 1520 1518 1516 1513 1511 1508 1506 1504 1503 1502 1501 1500 1499 1497 1496 1496 1496 1496 1496 1496 1495 1495 1495 1495 1495 1495 1494 1494 1493 1493 1492 1492 1491 1491
1516 1519 1521 1522 1522 1522 1522 1521 1520 1519 1518 1516 1514 1511 1509 1506 1504 1502 1501 1500 1499 1498 1497 1496 1495 1495 1495 1495 1495 1494 1494 1494 1495 1495 1495 1495 1495 1494 1494 1494 1493 1493 1492 1492
1513 1516 1518 1519 1520 1520 1520 1519 1518 1517 1516 1514 1512 1509 1507 1504 1502 1500 1498 1498 1498 1497 1496 1494 1494 1493 1494 1494 1494 1494 1494 1494 1494 1494 1494 1494 1495 1495 1494 1494 1494 1494 1493 1492
1510 1513 1515 1516 1517 1517 1517 1517 1516 1515 1513 1512 1510 1508 1505 1502 1500 1498 1497 1496 1495 1494 1493 1493 1492 1492 1492 1492 1493 1493 1493 1493 1493 1494 1494 1494 1494 1495 1495 1495 1494 1494 1493 1493
1507 1510 1512 1513 1514 1515 1515 1514 1513 1512 1511 1509 1507 1505 1503 1501 1498 1496 1494 1493 1492 1491 1491 1490 1490 1490 1490 1491 1491 1492 1492 1492 1492 1493 1493 1494 1494 1494 1495 1495 1494 1494 1493 1492
1503 1506 1508 1510 1511 1512 1512 1511 1511 1510 1508 1507 1505 1504 1501 1499 1497 1495 1492 1490 1489 1488 1488 1488 1488 1488 1489 1489 1490 1490 1491 1491 1491 1492 1492 1493 1493 1494 1494 1494 1494 1493 1493 1492
1499 1502 1505 1506 1507 1508 1508 1508 1508 1507 1506 1504 1503 1501 1500 1498 1495 1492 1490 1488 1487 1486 1486 1485 1486 1486 1486 1487 1488 1489 1489 1490 1490 1491 1491 1492 1492 1493 1493 1493 1493 1493 1492 1492
1495 1498 1500 1502 1503 1504 1505 1505 1504 1504 1503 1501 1500 1499 1497 1496 1493 1491 1488 1486 1485 1484 1483 1483 1483 1484 1484 1485 1486 1487 1488 1488 1489 1489 1489 1490 1491 1491 1492 1492 1492 1492 1492 1491
1491 1494 1496 1497 1499 1500 1500 1501 1500 1500 1500 1499 1497 1496 1495 1493 1491 1489 1486 1484 1483 1482 1481 1481 1481 1481 1482 1483 1484 1485 1486 1486 1487 1487 1488 1488 1489 1490 1490 1490 1490 1491 1491 1491